Tracking 17886 objects as of 8-December-2016
HD Live streaming from Space Station
objects crossing your sky now

COSMOS 2251 DEB

Track COSMOS 2251 DEB now!
10-day predictions


NORAD ID: 33899
Int'l Code: 1993-036DC
Perigee: 691.5 km
Apogee: 802.7 km
Inclination: 74.1 °
Period: 99.6 minutes
Semi major axis: 7118 km
RCS: 0.032 m2 (small)
Launch date: June 16, 1993
Source: Commonwealth of Independent States (former USSR) (CIS)
Launch site: PLESETSK MISSILE AND SPACE COMPLEX (PKMTR)

Note: This is SATELLITE DEBRIS
Your satellite tracking list
Your tracking list is empty





NASA's NSSDC Master Catalog

Two Line Element Set (TLE):
1 33899U 93036DC  16341.83725417 +.00000504 +00000-0 +14539-3 0  9999
2 33899 074.0573 132.8235 0078071 314.0984 162.7557 14.45626403411415
Source of the keplerian elements: AFSPC